User: anonymous   Login
Location: Arbon
(43.0005°N, 0.7472°E)
Time: 16:05:42
(UTC+00:00)
Language:

Meteor 1-12 Rocket - Orbit

View from above orbital plane
View from above orbital plane
View from above satellite
View from above satellite

Ground track
Ground track

The orbit data is extracted from the following two-line orbital elements,

1  6080U 72049B   20295.24775681 -.00000038 +00000-0 -33514-4 0  9997
2  6080 081.2384 254.2523 0050060 062.3657 298.2578 14.00919840468044
Epoch (UTC): 21 October 2020 05:56:46
Eccentricity: 0.0050060
inclination: 81.2384°
perigee height: 854 km
apogee height: 927 km
right ascension of ascending node: 254.2523°
argument of perigee: 62.3657°
revolutions per day: 14.00919840
mean anomaly at epoch: 298.2578°
orbit number at epoch: 46804

The dashed part of the orbit path shows where the satellite is in the earth's shadow,  

DLR